International Virtual Aviation Organisation

Russian Federation and Kazakhstan MCD

 

Карточка аэропорта UWOO

Внимание!
Информация на этой странице в стадии наполнения.
Если вы не увидели какой-то информации, или заметили неточность - пожалуйста сообщите нам!
Спасибо!
Команда RU-STAFF
Название аэропортаОренбург
Название аэропорта (англ.)Orenburg
Превышение387 ft. (118 m.)
Координаты51°48', 55°27'
Высота перехода700m
Эшелон переходаBy ATC
Коды ответчика2440-2443
Зона ОрВДСамара РПИ (UWWW)
Данные METARUWOO 032000Z VRB01MPS CAVOK M20/M23 Q1040 R26/820250 NOSIG RMK QFE769/1026
Проноз погоды (TAF)UWOO 031648Z 0318/0418 35003G08MPS 6000 FEW005 BKN016 TXM12/0410Z TNM23/0403Z TEMPO 0318/0418 VRB01MPS 0300 FZFG VV002
NOTAMshow/hide NOTAM
AWOS   TABLE

Информация о ВПП

ВПП Длина ВПП (м.) Покрытие Курс ВПП Частота ILS
082501Асфальтобетон79109
262501Асфальтобетон259109.3

Диспетчерские позиции

Позывной Наименование органа УВД Частота
UWOO_R_APPОренбург - Круг120.400
UWOO_TWRОренбург-Старт128.0



Спутниковое изображение